Terminal Aerodrome Forecast
Issued by NWS

Home | Current Version | Previous Version | Text Only | Print | Product List | Glossary On
Versions: 1 2 3 4 5 6 7 8 9 10 11 12 13 14 15 16 17 18 19 20 21 22 23 24 25 26 27 28 29 30 31 32 33 34 35 36 37 38 39 40 41 42 43 44
000
FTUS45 KBOI 222332
TAFMYL
TAF
KMYL 222332Z 2300/2324 32005KT P6SM SCT030
     FM230600 VRB03KT 1SM BR BKN005
     FM231200 00000KT 1/2SM FZFG OVC004
     FM231700 VRB03KT 1SM BR OVC005
     FM232100 VRB03KT P6SM SCT100=

USA.gov is the U.S. government's official web portal to all federal, state and local government web resources and services.